Change the Weather History Date:

Tuesday, October 16, 2012

  Actual Average Record
Temperature  
Mean Temperature 73 °F -  
Max Temperature 89 °F 85 °F 96 °F (2003)
Min Temperature 57 °F 59 °F 51 °F (2013)
Cooling Degree Days 8    
Growing Degree Days 23 (Base 50)    
Moisture  
Dew Point 32 °F    
Average Humidity 26    
Maximum Humidity 44    
Minimum Humidity 12    
Precipitation  
Precipitation 0.00 in - - ()
Sea Level Pressure  
Sea Level Pressure 29.85 in    
Wind  
Wind Speed 6 mph (ESE)    
Max Wind Speed 8 mph    
Max Gust Speed -    
Visibility 12 miles    
Events      
Averages and records for this station are not official NWS values.
T = Trace of Precipitation, MM = Missing Value Source: NWS Daily Summary

Daily Weather History Graph

Daily Weather History Graph

Search for Another Location

Airport or City:

Trip Planner

Search our weather history database for the weather conditions in past years. The results will help you decide how hot, cold, wet, or windy it might be!

Date:

Astronomy

Oct. 16, 2012 Rise Set
Actual Time 6:32 AM MST 5:51 PM MST
Civil Twilight 6:07 AM MST 6:16 PM MST
Nautical Twilight 5:38 AM MST 6:45 PM MST
Astronomical Twilight 5:09 AM MST 7:13 PM MST
Moon 7:53 AM MST (10/16) 6:46 PM MST (10/16)
Length of Visible Light 12h 08m
Length of Day
11h 18m
New Moon, 2% of the Moon is Illuminated
Oct 16
New Moon
Oct 21
First Quarter
Oct 29
Full
Nov 6
Last Quarter
Nov 13
New

Hourly Weather History & Observations

Time (MST) Temp. Dew Point Humidity Pressure Visibility Wind Dir Wind Speed Gust Speed Precip Events Conditions
12:15 AM 62.6 °F 32.0 °F 32% 29.87 in 10.0 mi ESE 6.9 mph - N/A   Clear
12:35 AM 62.6 °F 30.2 °F 30% 29.87 in 10.0 mi ESE 6.9 mph - N/A   Clear
12:55 AM 62.6 °F 30.2 °F 30% 29.88 in 10.0 mi SE 3.5 mph - N/A   Clear
1:15 AM 60.8 °F 33.8 °F 36% 29.89 in 10.0 mi Calm Calm - N/A   Clear
1:35 AM 62.6 °F 32.0 °F 32% 29.89 in 10.0 mi East 6.9 mph - N/A   Clear
1:55 AM 62.6 °F 28.4 °F 27% 29.89 in 10.0 mi ENE 5.8 mph - N/A   Clear
2:15 AM 62.6 °F 28.4 °F 27% 29.88 in 10.0 mi East 8.1 mph - N/A   Clear
2:35 AM 60.8 °F 26.6 °F 27% 29.88 in 10.0 mi East 8.1 mph - N/A   Clear
2:55 AM 60.8 °F 26.6 °F 27% 29.87 in 10.0 mi East 8.1 mph - N/A   Clear
3:15 AM 60.8 °F 26.6 °F 27% 29.87 in 10.0 mi ESE 6.9 mph - N/A   Clear
3:35 AM 60.8 °F 28.4 °F 29% 29.87 in 10.0 mi ESE 5.8 mph - N/A   Clear
3:55 AM 60.8 °F 30.2 °F 31% 29.88 in 10.0 mi ESE 5.8 mph - N/A   Clear
4:15 AM 59.0 °F 28.4 °F 31% 29.88 in 10.0 mi ESE 4.6 mph - N/A   Clear
4:35 AM 57.2 °F 26.6 °F 31% 29.88 in 10.0 mi ESE 5.8 mph - N/A   Clear
5:15 AM 57.2 °F 26.6 °F 31% 29.88 in 10.0 mi ESE 6.9 mph - N/A   Clear
5:47 AM 60.8 °F 28.4 °F 29% 29.88 in 20.0 mi ESE 5.8 mph - N/A   Clear
6:47 AM 57.2 °F 35.6 °F 44% 29.90 in 35.0 mi SE 8.1 mph - N/A   Clear
7:47 AM 62.6 °F 32.0 °F 32% 29.91 in 35.0 mi East 3.5 mph - N/A   Clear
8:47 AM 71.6 °F 33.8 °F 25% 29.92 in 35.0 mi SE 6.9 mph - N/A   Clear
9:47 AM 75.2 °F 33.8 °F 22% 29.91 in 35.0 mi ESE 5.8 mph - N/A   Clear
10:47 AM 80.6 °F 33.8 °F 18% 29.90 in 35.0 mi East 4.6 mph - N/A   Partly Cloudy
11:47 AM 84.2 °F 32.0 °F 15% 29.88 in 35.0 mi South 4.6 mph - N/A   Partly Cloudy
12:47 PM 87.8 °F 30.2 °F 13% 29.84 in 35.0 mi Variable 4.6 mph - N/A   Partly Cloudy
1:48 PM 87.8 °F 32.0 °F 14% 29.82 in 35.0 mi WNW 3.5 mph - N/A   Partly Cloudy
2:47 PM 89.6 °F 32.0 °F 13% 29.80 in 35.0 mi West 4.6 mph - N/A   Partly Cloudy
3:47 PM 89.6 °F 32.0 °F 13% 29.78 in 35.0 mi West 5.8 mph - N/A   Partly Cloudy
4:47 PM 89.6 °F 30.2 °F 12% 29.78 in 35.0 mi West 6.9 mph - N/A   Scattered Clouds
5:47 PM 86.0 °F 30.2 °F 13% 29.78 in 20.0 mi WSW 3.5 mph - N/A   Scattered Clouds
6:47 PM 84.2 °F 32.0 °F 15% 29.78 in 20.0 mi Calm Calm - N/A   Scattered Clouds
7:47 PM 75.2 °F 37.4 °F 25% 29.80 in 20.0 mi East 3.5 mph - N/A   Scattered Clouds
7:55 PM 73.4 °F 35.6 °F 25% 29.80 in 10.0 mi SE 3.5 mph - N/A   Clear
8:15 PM 71.6 °F 35.6 °F 27% 29.80 in 10.0 mi ESE 4.6 mph - N/A   Clear
8:35 PM 71.6 °F 33.8 °F 25% 29.80 in 10.0 mi ENE 5.8 mph - N/A   Clear
8:47 PM 73.4 °F 33.8 °F 23% 29.80 in 20.0 mi Variable 4.6 mph - N/A   Partly Cloudy
8:55 PM 71.6 °F 32.0 °F 23% 29.80 in 10.0 mi ENE 5.8 mph - N/A   Clear
9:15 PM 71.6 °F 33.8 °F 25% 29.81 in 10.0 mi East 5.8 mph - N/A   Clear
9:35 PM 71.6 °F 33.8 °F 25% 29.81 in 10.0 mi East 6.9 mph - N/A   Clear
9:55 PM 68.0 °F 33.8 °F 28% 29.82 in 10.0 mi ESE 5.8 mph - N/A   Clear
10:15 PM 68.0 °F 32.0 °F 26% 29.82 in 10.0 mi ESE 5.8 mph - N/A   Clear
10:35 PM 68.0 °F 32.0 °F 26% 29.82 in 10.0 mi ESE 5.8 mph - N/A   Clear
10:55 PM 64.4 °F 35.6 °F 34% 29.82 in 10.0 mi ESE 4.6 mph - N/A   Clear
11:15 PM 64.4 °F 33.8 °F 32% 29.82 in 10.0 mi SE 5.8 mph - N/A   Clear
11:35 PM 64.4 °F 35.6 °F 34% 29.82 in 10.0 mi SE 8.1 mph - N/A   Clear
11:55 PM 64.4 °F 33.8 °F 32% 29.82 in 10.0 mi East 6.9 mph - N/A   Clear